K0VSC-1 Weather Reports


Display with metric or nautical units.
time (UTC)temp
F
wind
direction
speed
MPH
gust
MPH
rain 1hr
in
rain 24hr
in
rain mn
in
humidity
%
barometer
mb
20260502183813 61 209 9.0 18.0 0.00 0.00 0.00 42 1013.5
20260502183313 61 250 10.0 17.0 0.00 0.00 0.00 37 1013.8
20260502182813 61 263 11.0 18.0 0.00 0.00 0.00 39 1013.8
20260502182313 61 232 10.0 22.0 0.00 0.00 0.00 39 1013.9
20260502181813 60 234 10.0 18.0 0.00 0.00 0.00 38 1014.0
20260502181313 60 244 10.0 26.0 0.00 0.00 0.00 38 1014.1
20260502180813 60 240 9.0 20.0 0.00 0.00 0.00 39 1014.2
20260502180313 59 242 11.0 20.0 0.00 0.00 0.00 39 1014.3
20260502170313 57 236 9.0 18.0 0.00 0.00 0.00 39 1015.2
20260502164313 57 206 10.0 19.0 0.00 0.00 0.00 40 1015.5
20260502163813 56 235 11.0 21.0 0.00 0.00 0.00 42 1015.6
20260502163313 56 262 11.0 19.0 0.00 0.00 0.00 41 1015.7
20260502162813 55 234 9.0 21.0 0.00 0.00 0.00 40 1015.7
20260502162313 55 239 9.0 19.0 0.00 0.00 0.00 39 1015.7
20260502161813 55 244 11.0 19.0 0.00 0.00 0.00 42 1015.8
20260502161313 54 234 11.0 24.0 0.00 0.00 0.00 41 1015.9
20260502160813 54 219 10.0 20.0 0.00 0.00 0.00 44 1016.0
20260502160313 54 246 10.0 22.0 0.00 0.00 0.00 43 1016.2
20260502152313 52 223 9.0 19.0 0.00 0.00 0.00 46 1017.0
20260502151813 51 211 8.0 16.0 0.00 0.00 0.00 49 1017.1
20260502151313 51 226 8.0 13.0 0.00 0.00 0.00 50 1017.1
20260502150813 51 237 7.0 17.0 0.00 0.00 0.00 50 1017.3
20260502150313 50 230 7.0 17.0 0.00 0.00 0.00 50 1017.3
20260502130744 40 261 5.0 8.0 0.00 0.00 0.00 65 1018.3
20260502130313 40 261 5.0 8.0 0.00 0.00 0.00 65 1018.3
20260502123813 38 238 4.0 7.0 0.00 0.00 0.00 68 1018.5
20260502123313 38 243 4.0 5.0 0.00 0.00 0.00 68 1018.5
20260502122813 37 254 3.0 5.0 0.00 0.00 0.00 68 1018.6
20260502122313 37 244 4.0 7.0 0.00 0.00 0.00 69 1018.6
20260502121813 37 234 4.0 6.0 0.00 0.00 0.00 68 1018.5
20260502121313 37 227 4.0 6.0 0.00 0.00 0.00 67 1018.5
20260502120813 37 229 4.0 8.0 0.00 0.00 0.00 67 1018.5
20260502120313 37 222 4.0 7.0 0.00 0.00 0.00 67 1018.5
20260502115813 37 234 4.0 6.0 0.00 0.00 0.00 67 1018.5
20260502115313 36 239 4.0 6.0 0.00 0.00 0.00 67 1018.5
20260502114855 36 237 4.0 6.0 0.00 0.00 0.00 67 1018.5
20260502114813 36 237 4.0 6.0 0.00 0.00 0.00 67 1018.5
20260502114313 36 239 4.0 6.0 0.00 0.00 0.00 67 1018.5
20260502113813 36 233 3.0 5.0 0.00 0.00 0.00 67 1018.5
20260502113313 36 240 3.0 5.0 0.00 0.00 0.00 67 1018.4
20260502112813 36 252 3.0 4.0 0.00 0.00 0.00 67 1018.5
20260502112313 36 234 3.0 5.0 0.00 0.00 0.00 66 1018.4
20260502111919 36 252 3.0 5.0 0.00 0.00 0.00 66 1018.5
20260502111813 36 252 3.0 5.0 0.00 0.00 0.00 66 1018.5
20260502111313 36 257 3.0 5.0 0.00 0.00 0.00 65 1018.5
20260502110919 37 244 3.0 4.0 0.00 0.00 0.00 65 1018.5
20260502110813 37 244 3.0 4.0 0.00 0.00 0.00 65 1018.5
20260502110313 37 248 3.0 4.0 0.00 0.00 0.00 64 1018.5
20260502105847 37 240 3.0 4.0 0.00 0.00 0.00 64 1018.5
20260502105813 37 240 3.0 4.0 0.00 0.00 0.00 64 1018.5
20260502105313 38 238 3.0 5.0 0.00 0.00 0.00 64 1018.5
20260502104813 38 251 3.0 5.0 0.00 0.00 0.00 64 1018.5
20260502104314 38 260 3.0 5.0 0.00 0.00 0.00 64 1018.6
20260502103813 38 254 2.0 4.0 0.00 0.00 0.00 65 1018.7
20260502103313 38 252 2.0 3.0 0.00 0.00 0.00 64 1018.7
20260502102813 38 264 2.0 3.0 0.00 0.00 0.00 64 1018.8
20260502102313 38 263 2.0 3.0 0.00 0.00 0.00 64 1018.8
20260502101813 38 262 2.0 3.0 0.00 0.00 0.00 64 1018.7
20260502101313 38 265 3.0 3.0 0.00 0.00 0.00 64 1018.8
20260502100813 37 265 3.0 4.0 0.00 0.00 0.00 65 1018.8
20260502100313 37 271 3.0 4.0 0.00 0.00 0.00 66 1018.7
20260502091506 37 259 4.0 6.0 0.00 0.00 0.00 68 1018.7
20260502091313 37 259 4.0 6.0 0.00 0.00 0.00 68 1018.7
20260502090915 37 261 4.0 7.0 0.00 0.00 0.00 68 1018.7
20260502090814 37 261 4.0 7.0 0.00 0.00 0.00 68 1018.7
20260502090314 37 252 3.0 7.0 0.00 0.00 0.00 66 1018.7
20260502071314 41 273 3.0 3.0 0.00 0.00 0.00 56 1019.0
20260502070814 41 278 3.0 4.0 0.00 0.00 0.00 55 1018.9
20260502070314 41 281 2.0 3.0 0.00 0.00 0.00 55 1018.9
20260502065814 41 298 1.0 2.0 0.00 0.00 0.00 54 1019.1
20260502065314 42 298 1.0 2.0 0.00 0.00 0.00 53 1019.1
20260502064814 42 298 1.0 2.0 0.00 0.00 0.00 53 1019.1
20260502064314 42 298 1.0 2.0 0.00 0.00 0.00 53 1019.1
20260502063943 42 298 1.0 2.0 0.00 0.00 0.00 53 1019.2
20260502063814 42 298 1.0 2.0 0.00 0.00 0.00 53 1019.2
20260502063314 42 296 1.0 2.0 0.00 0.00 0.00 53 1019.1
20260502062814 42 296 2.0 2.0 0.00 0.00 0.00 53 1019.2
20260502062314 42 296 1.0 2.0 0.00 0.00 0.00 53 1019.2
20260502061814 42 300 1.0 2.0 0.00 0.00 0.00 53 1019.2
20260502061314 42 298 1.0 2.0 0.00 0.00 0.00 52 1019.3
20260502060814 42 297 1.0 2.0 0.00 0.00 0.00 52 1019.2
20260502060314 43 301 1.0 3.0 0.00 0.00 0.00 52 1019.1
20260502055814 42 320 1.0 2.0 0.00 0.00 0.00 52 1019.1
20260502055314 42 310 1.0 3.0 0.00 0.00 0.00 53 1019.1
20260502054814 42 304 1.0 2.0 0.00 0.00 0.00 54 1019.0
20260502054314 42 298 1.0 2.0 0.00 0.00 0.00 54 1019.0
20260502053814 42 298 1.0 2.0 0.00 0.00 0.00 54 1019.1
20260502053431 42 298 2.0 3.0 0.00 0.00 0.00 54 1019.1
20260502053314 42 298 2.0 3.0 0.00 0.00 0.00 54 1019.1
20260502052849 42 298 2.0 3.0 0.00 0.00 0.00 53 1019.1
20260502052814 42 298 2.0 3.0 0.00 0.00 0.00 53 1019.1
20260502052314 43 298 1.0 2.0 0.00 0.00 0.00 53 1019.2
20260502051814 43 298 1.0 2.0 0.00 0.00 0.00 52 1019.1
20260502051314 43 298 1.0 2.0 0.00 0.00 0.00 52 1019.1
20260502050814 43 309 2.0 6.0 0.00 0.00 0.00 51 1019.1
20260502050314 43 323 2.0 4.0 0.00 0.00 0.00 52 1019.2
20260502045814 43 329 2.0 5.0 0.00 0.00 0.00 52 1019.2
20260502045314 43 331 2.0 4.0 0.00 0.00 0.00 51 1019.4
20260502044814 43 324 2.0 3.0 0.00 0.00 0.00 51 1019.2
20260502044314 44 327 2.0 3.0 0.00 0.00 0.00 51 1019.3
20260502043814 44 321 2.0 3.0 0.00 0.00 0.00 51 1019.3
20260502043314 43 328 3.0 5.0 0.00 0.00 0.00 51 1019.2
20260502042814 43 338 3.0 5.0 0.00 0.00 0.00 51 1019.4
20260502042314 43 326 3.0 6.0 0.00 0.00 0.00 52 1019.3
20260502041814 43 333 3.0 5.0 0.00 0.00 0.00 52 1019.3
20260502041314 43 0 3.0 5.0 0.00 0.00 0.00 52 1019.4
20260502040814 43 336 3.0 5.0 0.00 0.00 0.00 52 1019.2
20260502040314 44 5 3.0 4.0 0.00 0.00 0.00 52 1019.3
20260502035814 44 340 1.0 4.0 0.00 0.00 0.00 51 1019.3
20260502035358 44 323 0.0 2.0 0.00 0.00 0.00 51 1019.4
20260502035314 44 323 0.0 2.0 0.00 0.00 0.00 51 1019.4
20260502034814 44 281 0.0 1.0 0.00 0.00 0.00 51 1019.4
20260502034314 44 281 0.0 1.0 0.00 0.00 0.00 51 1019.4
20260502033814 44 280 1.0 1.0 0.00 0.00 0.00 50 1019.4
20260502033314 44 280 1.0 2.0 0.00 0.00 0.00 50 1019.3
20260502032814 45 280 2.0 2.0 0.00 0.00 0.00 49 1019.3
20260502032314 45 279 2.0 3.0 0.00 0.00 0.00 49 1019.2
20260502031814 45 277 2.0 3.0 0.00 0.00 0.00 49 1019.2
20260502031314 45 269 2.0 3.0 0.00 0.00 0.00 49 1019.1
20260502030814 45 265 2.0 3.0 0.00 0.00 0.00 49 1019.2
20260502030314 46 263 2.0 3.0 0.00 0.00 0.00 48 1019.1
20260502025814 46 266 2.0 3.0 0.00 0.00 0.00 48 1019.1
20260502025314 46 267 2.0 3.0 0.00 0.00 0.00 48 1019.0
20260502024814 46 265 2.0 3.0 0.00 0.00 0.00 46 1019.0
20260502024314 46 262 2.0 3.0 0.00 0.00 0.00 46 1019.1
20260502023814 46 267 2.0 3.0 0.00 0.00 0.00 45 1019.0
20260502023314 46 270 2.0 3.0 0.00 0.00 0.00 44 1019.0
20260502022814 46 281 1.0 2.0 0.00 0.00 0.00 44 1019.0
20260502022314 46 284 1.0 2.0 0.00 0.00 0.00 44 1019.0
20260502021814 46 284 1.0 2.0 0.00 0.00 0.00 44 1019.0
20260502021314 47 284 0.0 2.0 0.00 0.00 0.00 43 1019.0
20260502020814 47 284 0.0 1.0 0.00 0.00 0.00 43 1018.9
20260502020314 47 284 0.0 1.0 0.00 0.00 0.00 43 1019.1
20260502015858 48 284 0.0 1.0 0.00 0.00 0.00 42 1019.0
20260502015814 48 284 0.0 1.0 0.00 0.00 0.00 42 1019.0
20260502015314 48 284 0.0 1.0 0.00 0.00 0.00 42 1019.0
20260502014814 48 284 1.0 1.0 0.00 0.00 0.00 42 1019.0
20260502014314 48 284 1.0 1.0 0.00 0.00 0.00 41 1018.8
20260502013814 49 284 1.0 2.0 0.00 0.00 0.00 41 1018.8
20260502013314 49 284 1.0 2.0 0.00 0.00 0.00 38 1018.6
20260502012814 49 327 0.0 1.0 0.00 0.00 0.00 38 1018.6
20260502012314 50 327 0.0 1.0 0.00 0.00 0.00 36 1018.6
20260502011815 50 327 0.0 2.0 0.00 0.00 0.00 36 1018.5
20260502011314 50 335 0.0 1.0 0.00 0.00 0.00 37 1018.5
20260502010814 50 355 0.0 0.0 0.00 0.00 0.00 35 1018.4
20260502010314 50 355 0.0 0.0 0.00 0.00 0.00 34 1018.5
20260502005814 51 355 0.0 1.0 0.00 0.00 0.00 36 1018.5
20260502005315 51 355 0.0 0.0 0.00 0.00 0.00 34 1018.5
20260502004815 51 355 1.0 2.0 0.00 0.00 0.00 35 1018.5
20260502004315 51 355 1.0 2.0 0.00 0.00 0.00 37 1018.4
20260502003815 51 355 2.0 3.0 0.00 0.00 0.00 33 1018.4
20260502003315 51 346 2.0 4.0 0.00 0.00 0.00 33 1018.5
20260502002815 51 345 2.0 3.0 0.00 0.00 0.00 34 1018.4
20260502002315 51 355 2.0 5.0 0.00 0.00 0.00 33 1018.4
20260502001815 51 341 1.0 5.0 0.00 0.00 0.00 33 1018.5
20260502001315 51 299 0.0 1.0 0.00 0.00 0.00 33 1018.4
20260502000815 51 299 1.0 2.0 0.00 0.00 0.00 34 1018.4
20260502000317 51 301 1.0 4.0 0.00 0.00 0.00 34 1018.4
20260501235815 51 323 2.0 3.0 0.00 0.00 0.00 33 1018.5
20260501235315 51 335 4.0 5.0 0.00 0.00 0.00 33 1018.5
20260501234815 51 340 3.0 6.0 0.00 0.00 0.00 33 1018.6
20260501234315 51 332 3.0 5.0 0.00 0.00 0.00 34 1018.6
20260501233815 51 333 4.0 6.0 0.00 0.00 0.00 33 1018.7
20260501233315 51 346 5.0 9.0 0.00 0.00 0.00 33 1018.7
20260501232815 52 340 5.0 9.0 0.00 0.00 0.00 32 1018.6
20260501232315 52 348 3.0 8.0 0.00 0.00 0.00 35 1018.7
20260501231815 52 337 2.0 5.0 0.00 0.00 0.00 33 1018.7
20260501231315 52 281 2.0 4.0 0.00 0.00 0.00 33 1018.6
20260501230815 53 343 2.0 8.0 0.00 0.00 0.00 34 1018.6
20260501230315 53 297 1.0 3.0 0.00 0.00 0.00 35 1018.6
20260501225815 52 290 2.0 3.0 0.00 0.00 0.00 35 1018.6
20260501225315 51 317 3.0 6.0 0.00 0.00 0.00 34 1018.7
20260501224815 51 343 4.0 6.0 0.00 0.00 0.00 35 1018.7
20260501224315 51 22 4.0 9.0 0.00 0.00 0.00 34 1018.7
20260501223815 51 346 3.0 7.0 0.00 0.00 0.00 33 1018.7
20260501223315 51 340 2.0 6.0 0.00 0.00 0.00 34 1018.7
20260501222815 51 302 3.0 5.0 0.00 0.00 0.00 37 1018.7
20260501222315 52 312 3.0 6.0 0.00 0.00 0.00 33 1018.8
20260501221815 52 338 5.0 9.0 0.00 0.00 0.00 34 1018.8
20260501221315 52 344 5.0 12.0 0.00 0.00 0.00 35 1018.8
20260501220815 52 32 3.0 10.0 0.00 0.00 0.00 34 1018.9
20260501220315 52 276 3.0 6.0 0.00 0.00 0.00 33 1018.7
20260501215815 51 330 4.0 10.0 0.00 0.00 0.00 33 1018.7
20260501215315 52 312 3.0 11.0 0.00 0.00 0.00 32 1018.6
20260501214815 52 312 2.0 6.0 0.00 0.00 0.00 35 1018.7
20260501214315 52 301 2.0 5.0 0.00 0.00 0.00 33 1018.8
20260501213815 52 279 2.0 9.0 0.00 0.00 0.00 33 1018.7
20260501213315 52 329 2.0 6.0 0.00 0.00 0.00 35 1018.8
20260501212815 51 261 4.0 4.0 0.00 0.00 0.00 37 1018.9
20260501212315 50 355 6.0 10.0 0.00 0.00 0.00 36 1018.9
20260501211815 50 342 6.0 12.0 0.00 0.00 0.00 36 1019.0
20260501211315 51 35 4.0 12.0 0.00 0.00 0.00 35 1018.9
20260501210815 51 63 2.0 5.0 0.00 0.00 0.00 36 1018.9
20260501210315 50 109 3.0 5.0 0.00 0.00 0.00 40 1019.1
20260501205815 50 33 4.0 14.0 0.00 0.00 0.00 38 1019.1
20260501205315 50 39 4.0 11.0 0.00 0.00 0.00 37 1019.1
20260501204815 51 321 5.0 12.0 0.00 0.00 0.00 36 1019.3
20260501204315 50 327 5.0 12.0 0.00 0.00 0.00 39 1019.1
20260501203815 49 335 6.0 11.0 0.00 0.00 0.00 36 1019.2
20260501203315 49 32 5.0 15.0 0.00 0.00 0.00 36 1019.5
20260501202815 50 62 5.0 11.0 0.00 0.00 0.00 37 1019.6
20260501202315 50 346 7.0 10.0 0.00 0.00 0.00 37 1019.6
20260501201815 50 351 5.0 11.0 0.00 0.00 0.00 38 1019.6
20260501201315 51 35 3.0 9.0 0.00 0.00 0.00 38 1019.6
20260501200815 50 329 2.0 5.0 0.00 0.00 0.00 39 1019.7
20260501200315 49 52 3.0 9.0 0.00 0.00 0.00 40 1019.7
20260501195815 49 40 4.0 10.0 0.00 0.00 0.00 37 1019.7
20260501195315 49 302 7.0 11.0 0.00 0.00 0.00 40 1019.7
20260501194815 48 5 8.0 14.0 0.00 0.00 0.00 40 1019.7
20260501194315 48 39 5.0 17.0 0.00 0.00 0.00 39 1019.8
20260501193815 49 84 3.0 5.0 0.00 0.00 0.00 39 1019.7
20260501193315 48 59 4.0 8.0 0.00 0.00 0.00 40 1019.8
20260501192815 49 350 3.0 8.0 0.00 0.00 0.00 39 1019.9
20260501192315 48 32 3.0 10.0 0.00 0.00 0.00 40 1019.8
20260501191815 48 68 6.0 5.0 0.00 0.00 0.00 44 1019.7
20260501191315 47 15 8.0 15.0 0.00 0.00 0.00 42 1019.8
20260501190815 47 344 6.0 12.0 0.00 0.00 0.00 42 1019.8
20260501190315 47 9 5.0 12.0 0.00 0.00 0.00 43 1019.9
20260501185815 47 40 4.0 11.0 0.00 0.00 0.00 43 1019.8
20260501185315 47 38 4.0 10.0 0.00 0.00 0.00 43 1019.8
20260501184815 47 269 3.0 10.0 0.00 0.00 0.00 42 1019.8
20260501184315 47 63 3.0 4.0 0.00 0.00 0.00 45 1019.8